TimePST,TemperatureF,Dew PointF,Humidity,Sea Level PressureIn,VisibilityMPH,Wind Direction,Wind SpeedMPH,Gust SpeedMPH,PrecipitationIn,Events,Conditions,WindDirDegrees,DateUTC
12:09 AM,44.6,37.4,76,29.40,10.0,ESE,9.2,-,N/A,,Overcast,120,2012-12-02 08:09:00
12:55 AM,44.1,37.9,79,29.36,10.0,SE,10.4,-,N/A,,Overcast,130,2012-12-02 08:55:00
1:55 AM,43.0,39.0,86,29.32,10.0,ESE,8.1,-,0.00,Rain,Light Rain,120,2012-12-02 09:55:00
2:55 AM,42.1,39.0,89,29.28,8.0,East,8.1,-,0.05,Rain,Light Rain,100,2012-12-02 10:55:00
3:30 AM,42.8,39.2,87,29.25,6.0,ESE,3.5,-,0.03,Rain,Light Rain,110,2012-12-02 11:30:00
3:55 AM,43.0,39.9,89,29.25,7.0,NW,3.5,-,0.04,Rain,Light Rain,320,2012-12-02 11:55:00
4:15 AM,42.8,39.2,87,29.22,5.0,Calm,Calm,-,0.01,Rain,Light Rain,0,2012-12-02 12:15:00
4:45 AM,42.8,39.2,87,29.21,1.8,WNW,3.5,-,0.03,Rain,Light Rain,290,2012-12-02 12:45:00
4:55 AM,39.9,37.9,93,29.21,0.5,Calm,Calm,-,0.04,Fog-Rain,Light Rain,0,2012-12-02 12:55:00
5:14 AM,39.2,39.2,100,29.21,1.5,Calm,Calm,-,0.00,,Overcast,0,2012-12-02 13:14:00
5:27 AM,41.0,39.2,93,29.21,2.5,Calm,Calm,-,0.00,,Overcast,0,2012-12-02 13:27:00
5:35 AM,41.0,37.4,87,29.21,3.0,WNW,3.5,-,0.00,,Overcast,290,2012-12-02 13:35:00
5:45 AM,41.0,37.4,87,29.22,2.5,Calm,Calm,-,0.00,,Overcast,0,2012-12-02 13:45:00
5:52 AM,41.0,39.2,93,29.21,4.0,Calm,Calm,-,0.00,,Overcast,0,2012-12-02 13:52:00
5:55 AM,41.0,39.0,93,29.23,4.0,Calm,Calm,-,0.00,,Overcast,0,2012-12-02 13:55:00
6:19 AM,39.2,37.4,93,29.21,0.8,South,3.5,-,N/A,,Overcast,180,2012-12-02 14:19:00
6:53 AM,39.2,37.4,93,29.19,2.0,WNW,8.1,-,N/A,,Overcast,290,2012-12-02 14:53:00
6:55 AM,39.9,37.0,89,29.21,5.0,WNW,8.1,-,N/A,,Overcast,290,2012-12-02 14:55:00
7:30 AM,39.2,37.4,93,29.23,10.0,NW,8.1,-,N/A,,Overcast,320,2012-12-02 15:30:00
7:42 AM,39.2,35.6,87,29.23,10.0,NNW,6.9,-,N/A,,Overcast,340,2012-12-02 15:42:00
7:55 AM,39.9,37.0,89,29.24,10.0,NW,6.9,-,N/A,,Overcast,320,2012-12-02 15:55:00
8:42 AM,39.2,35.6,87,29.25,10.0,Calm,Calm,-,0.00,,Scattered Clouds,0,2012-12-02 16:42:00
8:55 AM,39.9,37.0,89,29.26,10.0,South,3.5,-,0.00,,Clear,170,2012-12-02 16:55:00
9:55 AM,43.0,37.0,80,29.31,10.0,SW,8.1,-,N/A,,Clear,220,2012-12-02 17:55:00
10:55 AM,48.9,33.1,54,29.35,10.0,West,11.5,18.4,N/A,,Clear,270,2012-12-02 18:55:00
11:55 AM,51.1,28.9,43,29.38,10.0,NW,13.8,29.9,N/A,,Partly Cloudy,320,2012-12-02 19:55:00
12:55 PM,51.1,27.0,39,29.43,10.0,West,16.1,35.7,N/A,,Partly Cloudy,280,2012-12-02 20:55:00
1:55 PM,51.1,28.9,43,29.48,10.0,West,18.4,27.6,N/A,,Clear,270,2012-12-02 21:55:00
2:55 PM,51.1,28.9,43,29.52,10.0,WNW,9.2,20.7,N/A,,Scattered Clouds,290,2012-12-02 22:55:00
3:55 PM,48.9,30.0,48,29.56,10.0,North,6.9,-,N/A,,Mostly Cloudy,10,2012-12-02 23:55:00
4:55 PM,45.0,30.9,58,29.62,10.0,NNE,5.8,-,N/A,,Mostly Cloudy,20,2012-12-03 00:55:00
5:55 PM,44.1,33.1,65,29.64,10.0,Calm,Calm,-,N/A,,Mostly Cloudy,0,2012-12-03 01:55:00
6:55 PM,42.1,33.1,70,29.67,10.0,West,3.5,-,N/A,,Overcast,260,2012-12-03 02:55:00
7:55 PM,41.0,34.0,76,29.68,10.0,SE,3.5,-,N/A,,Mostly Cloudy,130,2012-12-03 03:55:00
8:55 PM,37.9,32.0,79,29.72,10.0,NE,4.6,-,N/A,,Partly Cloudy,50,2012-12-03 04:55:00
9:55 PM,37.0,32.0,82,29.74,10.0,East,8.1,-,N/A,,Clear,90,2012-12-03 05:55:00
10:55 PM,39.0,32.0,76,29.75,10.0,Calm,Calm,-,N/A,,Scattered Clouds,0,2012-12-03 06:55:00
11:55 PM,39.9,32.0,73,29.78,10.0,East,6.9,-,N/A,,Overcast,80,2012-12-03 07:55:00